Location: Mississauga
(43.5802°N, 79.6166°W)
Time: 03:04:07
(UTC-05:00)

Cosmos 1437 Rocket - Visible Passes

Search period start: 20 December 2014 00:00
Search period end: 30 December 2014 00:00
Orbit: 523 x 566 km, 81.2° (Epoch: 18 December)

Date Brightness Start Highest point End Pass type
(mag) Time Alt. Az. Time Alt. Az. Time Alt. Az.
20 Dec 5.8 18:14:51 10° W 18:16:19 12° WNW 18:17:46 10° NW visible
21 Dec 5.9 18:09:08 10° W 18:10:15 11° WNW 18:11:22 10° NW visible
22 Dec 6.0 18:03:35 10° WNW 18:04:10 10° WNW 18:04:45 10° NW visible
